| time (UTC) | temp F | wind direction | speed knots | gust knots | rain 1hr in | rain 24hr in | rain mn in | humidity % | barometer mb |
| 20260507170032 | 53 | 64 | 5.2 | 10.4 | 0.13 | 0.34 | 0.34 | 95 | 1011.4 |
| 20260507165511 | 53 | 88 | 2.6 | 10.4 | 0.14 | 0.33 | 0.33 | 96 | 1011.7 |
| 20260507165013 | 53 | 90 | 2.6 | 11.3 | 0.16 | 0.33 | 0.33 | 96 | 1011.5 |
| 20260507164528 | 53 | 42 | 4.3 | 11.3 | 0.18 | 0.33 | 0.33 | 96 | 1011.3 |
| 20260507164009 | 53 | 65 | 2.6 | 10.4 | 0.18 | 0.32 | 0.32 | 96 | 1011.2 |
| 20260507163515 | 53 | 65 | 4.3 | 11.3 | 0.19 | 0.31 | 0.31 | 96 | 1011.0 |
| 20260507163035 | 53 | 32 | 5.2 | 13.9 | 0.21 | 0.30 | 0.30 | 95 | 1011.0 |
| 20260507162514 | 53 | 53 | 7.0 | 13.9 | 0.22 | 0.29 | 0.29 | 95 | 1011.1 |
| 20260507162011 | 54 | 84 | 7.8 | 13.9 | 0.24 | 0.29 | 0.29 | 95 | 1010.9 |
| 20260507161530 | 54 | 83 | 6.1 | 12.2 | 0.25 | 0.28 | 0.28 | 96 | 1011.0 |
| 20260507161011 | 54 | 78 | 5.2 | 8.7 | 0.24 | 0.26 | 0.26 | 96 | 1011.1 |
| 20260507160509 | 54 | 37 | 3.5 | 9.6 | 0.22 | 0.24 | 0.24 | 96 | 1011.4 |
| 20260507160054 | 54 | 53 | 5.2 | 13.9 | 0.18 | 0.21 | 0.21 | 96 | 1011.5 |
| 20260507155512 | 54 | 23 | 7.8 | 13.9 | 0.16 | 0.18 | 0.18 | 96 | 1011.2 |
| 20260507155011 | 54 | 44 | 7.0 | 13.0 | 0.13 | 0.15 | 0.15 | 96 | 1011.0 |
| 20260507154529 | 54 | 51 | 7.0 | 16.5 | 0.11 | 0.14 | 0.14 | 96 | 1011.0 |
| 20260507154011 | 53 | 59 | 7.8 | 16.5 | 0.10 | 0.12 | 0.12 | 95 | 1010.5 |
| 20260507153508 | 53 | 67 | 7.0 | 13.0 | 0.08 | 0.11 | 0.11 | 95 | 1010.5 |
| 20260507153032 | 53 | 28 | 6.1 | 13.9 | 0.07 | 0.09 | 0.09 | 95 | 1011.1 |
| 20260507152511 | 53 | 69 | 4.3 | 16.5 | 0.03 | 0.06 | 0.06 | 95 | 1011.5 |
| 20260507152013 | 53 | 42 | 7.8 | 16.5 | 0.01 | 0.03 | 0.03 | 95 | 1011.2 |
| 20260507151526 | 54 | 49 | 4.3 | 14.8 | 0.00 | 0.02 | 0.02 | 95 | 1011.4 |
| 20260507151011 | 54 | 29 | 7.0 | 14.8 | 0.00 | 0.02 | 0.02 | 95 | 1011.5 |
| 20260507150512 | 54 | 55 | 6.1 | 14.8 | 0.00 | 0.02 | 0.02 | 95 | 1011.6 |
| 20260507150030 | 55 | 24 | 3.5 | 16.5 | 0.00 | 0.02 | 0.02 | 95 | 1011.6 |
| 20260507145511 | 55 | 54 | 7.0 | 16.5 | 0.00 | 0.02 | 0.02 | 94 | 1011.6 |
| 20260507145011 | 55 | 42 | 7.0 | 13.9 | 0.00 | 0.02 | 0.02 | 94 | 1011.4 |
| 20260507144542 | 55 | 336 | 4.3 | 15.6 | 0.00 | 0.02 | 0.02 | 95 | 1011.2 |
| 20260507144014 | 55 | 45 | 7.8 | 15.6 | 0.00 | 0.02 | 0.02 | 94 | 1011.3 |
| 20260507143515 | 56 | 63 | 10.4 | 15.6 | 0.00 | 0.02 | 0.02 | 94 | 1011.2 |
| 20260507143032 | 56 | 33 | 7.8 | 16.5 | 0.00 | 0.02 | 0.02 | 94 | 1011.1 |
| 20260507142513 | 57 | 51 | 8.7 | 16.5 | 0.00 | 0.02 | 0.02 | 94 | 1011.2 |
| 20260507142013 | 57 | 24 | 8.7 | 13.0 | 0.00 | 0.02 | 0.02 | 94 | 1011.1 |
| 20260507141530 | 57 | 53 | 7.8 | 14.8 | 0.00 | 0.02 | 0.02 | 94 | 1011.0 |
| 20260507141017 | 58 | 55 | 8.7 | 14.8 | 0.00 | 0.02 | 0.02 | 94 | 1011.0 |
| 20260507140513 | 58 | 65 | 6.1 | 11.3 | 0.00 | 0.02 | 0.02 | 94 | 1011.0 |
| 20260507140034 | 59 | 59 | 7.0 | 11.3 | 0.00 | 0.02 | 0.02 | 94 | 1010.9 |
| 20260507135511 | 59 | 82 | 4.3 | 11.3 | 0.00 | 0.02 | 0.02 | 95 | 1010.9 |
| 20260507135013 | 58 | 54 | 3.5 | 10.4 | 0.00 | 0.02 | 0.02 | 95 | 1010.9 |
| 20260507134530 | 58 | 75 | 1.7 | 10.4 | 0.00 | 0.02 | 0.02 | 94 | 1010.8 |
| 20260507134010 | 58 | 54 | 5.2 | 13.9 | 0.00 | 0.02 | 0.02 | 94 | 1010.7 |
| 20260507133513 | 58 | 14 | 5.2 | 13.9 | 0.00 | 0.02 | 0.02 | 94 | 1010.7 |
| 20260507133028 | 59 | 55 | 4.3 | 13.9 | 0.00 | 0.02 | 0.02 | 94 | 1010.7 |
| 20260507132513 | 59 | 11 | 7.8 | 13.9 | 0.00 | 0.02 | 0.02 | 94 | 1010.5 |
| 20260507132010 | 59 | 28 | 6.1 | 13.0 | 0.00 | 0.02 | 0.02 | 94 | 1010.6 |
| 20260507131532 | 59 | 74 | 6.1 | 13.0 | 0.00 | 0.02 | 0.02 | 94 | 1010.6 |
| 20260507131010 | 59 | 327 | 5.2 | 12.2 | 0.00 | 0.02 | 0.02 | 94 | 1010.4 |
| 20260507130511 | 59 | 11 | 5.2 | 12.2 | 0.00 | 0.02 | 0.02 | 94 | 1010.7 |
| 20260507130036 | 59 | 84 | 5.2 | 12.2 | 0.00 | 0.02 | 0.02 | 94 | 1010.9 |
| 20260507125513 | 59 | 348 | 5.2 | 12.2 | 0.00 | 0.02 | 0.02 | 94 | 1011.2 |
| 20260507125011 | 59 | 61 | 2.6 | 9.6 | 0.00 | 0.02 | 0.02 | 94 | 1011.3 |
| 20260507124527 | 59 | 329 | 3.5 | 13.9 | 0.00 | 0.02 | 0.02 | 94 | 1011.3 |
| 20260507124013 | 58 | 64 | 7.0 | 14.8 | 0.00 | 0.02 | 0.02 | 94 | 1011.0 |
| 20260507123515 | 59 | 92 | 5.2 | 14.8 | 0.00 | 0.02 | 0.02 | 94 | 1010.9 |
| 20260507123038 | 59 | 60 | 5.2 | 14.8 | 0.00 | 0.02 | 0.02 | 94 | 1010.9 |
| 20260507122511 | 59 | 67 | 5.2 | 14.8 | 0.00 | 0.02 | 0.02 | 94 | 1011.0 |
| 20260507122012 | 59 | 65 | 5.2 | 14.8 | 0.00 | 0.02 | 0.02 | 94 | 1010.9 |
| 20260507121528 | 59 | 46 | 2.6 | 14.8 | 0.00 | 0.02 | 0.02 | 94 | 1011.0 |
| 20260507121011 | 59 | 28 | 5.2 | 14.8 | 0.00 | 0.02 | 0.02 | 93 | 1010.9 |
| 20260507120510 | 59 | 55 | 3.5 | 14.8 | 0.00 | 0.02 | 0.02 | 93 | 1010.8 |
| 20260507120030 | 59 | 36 | 7.8 | 14.8 | 0.00 | 0.02 | 0.02 | 93 | 1010.8 |
| 20260507115511 | 60 | 38 | 7.8 | 14.8 | 0.00 | 0.02 | 0.02 | 92 | 1011.1 |
| 20260507115012 | 61 | 15 | 3.5 | 15.6 | 0.00 | 0.02 | 0.02 | 92 | 1011.0 |
| 20260507114528 | 62 | 61 | 8.7 | 15.6 | 0.00 | 0.02 | 0.02 | 89 | 1010.7 |
| 20260507114011 | 65 | 23 | 2.6 | 7.8 | 0.00 | 0.02 | 0.02 | 94 | 1010.7 |
| 20260507113509 | 65 | 242 | 0.0 | 1.7 | 0.00 | 0.02 | 0.02 | 94 | 1010.2 |
| 20260507113030 | 65 | 0 | 0.0 | 2.6 | 0.00 | 0.02 | 0.02 | 94 | 1010.0 |
| 20260507112513 | 65 | 270 | 0.9 | 2.6 | 0.00 | 0.02 | 0.02 | 94 | 1010.2 |
| 20260507112012 | 65 | 0 | 0.0 | 2.6 | 0.00 | 0.02 | 0.02 | 93 | 1010.0 |
| 20260507111537 | 65 | 269 | 0.9 | 6.1 | 0.00 | 0.02 | 0.02 | 93 | 1010.3 |
| 20260507111013 | 65 | 0 | 1.7 | 6.1 | 0.00 | 0.02 | 0.02 | 93 | 1010.3 |
| 20260507110510 | 65 | 0 | 0.0 | 4.3 | 0.00 | 0.02 | 0.02 | 93 | 1010.1 |
| 20260507110031 | 65 | 267 | 0.9 | 5.2 | 0.00 | 0.02 | 0.02 | 93 | 1010.0 |
| 20260507105512 | 65 | 263 | 2.6 | 5.2 | 0.00 | 0.02 | 0.02 | 93 | 1010.1 |
| 20260507105012 | 65 | 279 | 2.6 | 7.0 | 0.00 | 0.02 | 0.02 | 93 | 1010.0 |
| 20260507104528 | 65 | 279 | 2.6 | 7.0 | 0.00 | 0.02 | 0.02 | 93 | 1009.9 |
| 20260507104011 | 65 | 281 | 4.3 | 7.0 | 0.00 | 0.02 | 0.02 | 92 | 1010.0 |
| 20260507103511 | 65 | 271 | 1.7 | 3.5 | 0.00 | 0.02 | 0.02 | 92 | 1009.8 |
| 20260507103032 | 66 | 269 | 0.9 | 2.6 | 0.00 | 0.02 | 0.02 | 92 | 1009.8 |
| 20260507102511 | 66 | 269 | 0.0 | 7.0 | 0.01 | 0.02 | 0.02 | 92 | 1009.9 |
| 20260507102010 | 66 | 281 | 1.7 | 7.0 | 0.01 | 0.02 | 0.02 | 91 | 1010.0 |
| 20260507101530 | 66 | 266 | 1.7 | 7.8 | 0.01 | 0.02 | 0.02 | 91 | 1009.9 |
| 20260507101010 | 66 | 283 | 3.5 | 7.8 | 0.01 | 0.02 | 0.02 | 90 | 1009.8 |
| 20260507100513 | 66 | 306 | 4.3 | 12.2 | 0.01 | 0.02 | 0.02 | 90 | 1009.6 |
| 20260507100027 | 67 | 309 | 3.5 | 12.2 | 0.01 | 0.02 | 0.02 | 89 | 1009.5 |
| 20260507095509 | 67 | 275 | 4.3 | 8.7 | 0.01 | 0.02 | 0.02 | 88 | 1009.3 |
| 20260507095011 | 67 | 278 | 5.2 | 7.8 | 0.00 | 0.01 | 0.01 | 88 | 1009.0 |
| 20260507094531 | 67 | 278 | 3.5 | 7.8 | 0.00 | 0.01 | 0.01 | 88 | 1008.9 |
| 20260507094011 | 67 | 222 | 1.7 | 10.4 | 0.00 | 0.01 | 0.01 | 89 | 1008.8 |
| 20260507093511 | 67 | 261 | 1.7 | 10.4 | 0.00 | 0.01 | 0.01 | 88 | 1008.9 |
| 20260507093040 | 67 | 259 | 2.6 | 10.4 | 0.00 | 0.01 | 0.01 | 88 | 1008.9 |
| 20260507092512 | 67 | 281 | 3.5 | 8.7 | 0.00 | 0.00 | 0.00 | 88 | 1008.9 |
| 20260507092011 | 67 | 235 | 3.5 | 8.7 | 0.00 | 0.00 | 0.00 | 88 | 1008.8 |
| 20260507091530 | 67 | 274 | 2.6 | 9.6 | 0.00 | 0.00 | 0.00 | 87 | 1009.0 |
| 20260507091014 | 67 | 230 | 2.6 | 9.6 | 0.00 | 0.00 | 0.00 | 87 | 1009.0 |
| 20260507090512 | 67 | 271 | 5.2 | 8.7 | 0.00 | 0.00 | 0.00 | 86 | 1009.2 |
| 20260507090028 | 67 | 258 | 4.3 | 8.7 | 0.00 | 0.00 | 0.00 | 86 | 1009.3 |
| 20260507085511 | 67 | 232 | 2.6 | 9.6 | 0.00 | 0.00 | 0.00 | 86 | 1009.1 |
| 20260507085014 | 68 | 259 | 4.3 | 12.2 | 0.00 | 0.00 | 0.00 | 85 | 1009.3 |
| 20260507084528 | 68 | 223 | 4.3 | 12.2 | 0.00 | 0.00 | 0.00 | 85 | 1009.4 |
| 20260507084016 | 68 | 282 | 4.3 | 11.3 | 0.00 | 0.00 | 0.00 | 85 | 1009.3 |
| 20260507083511 | 68 | 236 | 5.2 | 11.3 | 0.00 | 0.00 | 0.00 | 84 | 1009.6 |
| 20260507083030 | 68 | 275 | 6.1 | 13.0 | 0.00 | 0.00 | 0.00 | 84 | 1009.6 |
| 20260507082513 | 68 | 231 | 6.1 | 13.9 | 0.00 | 0.00 | 0.00 | 84 | 1009.5 |
| 20260507082012 | 68 | 213 | 4.3 | 13.9 | 0.00 | 0.00 | 0.00 | 83 | 1009.4 |
| 20260507081536 | 68 | 246 | 6.1 | 13.9 | 0.00 | 0.00 | 0.00 | 83 | 1009.6 |
| 20260507081012 | 68 | 269 | 4.3 | 10.4 | 0.00 | 0.00 | 0.00 | 83 | 1009.7 |
| 20260507080518 | 68 | 246 | 5.2 | 13.0 | 0.00 | 0.00 | 0.00 | 83 | 1009.8 |
| 20260507080030 | 68 | 180 | 7.0 | 13.0 | 0.00 | 0.00 | 0.00 | 82 | 1009.8 |
| 20260507075512 | 68 | 272 | 4.3 | 13.0 | 0.00 | 0.00 | 0.00 | 82 | 1009.8 |
| 20260507075013 | 68 | 319 | 4.3 | 8.7 | 0.00 | 0.00 | 0.00 | 82 | 1010.0 |
| 20260507074528 | 68 | 211 | 4.3 | 7.8 | 0.00 | 0.00 | 0.00 | 82 | 1010.2 |
| 20260507074014 | 68 | 279 | 3.5 | 9.6 | 0.00 | 0.00 | 0.00 | 82 | 1010.2 |
| 20260507073509 | 68 | 271 | 3.5 | 10.4 | 0.00 | 0.00 | 0.00 | 83 | 1010.1 |
| 20260507073028 | 68 | 279 | 5.2 | 10.4 | 0.00 | 0.00 | 0.00 | 83 | 1010.0 |
| 20260507072511 | 68 | 257 | 4.3 | 11.3 | 0.00 | 0.00 | 0.00 | 83 | 1009.7 |
| 20260507072010 | 68 | 280 | 4.3 | 11.3 | 0.00 | 0.00 | 0.00 | 83 | 1010.1 |
| 20260507071530 | 68 | 206 | 6.1 | 9.6 | 0.00 | 0.00 | 0.00 | 83 | 1009.9 |
| 20260507071010 | 68 | 261 | 5.2 | 10.4 | 0.00 | 0.00 | 0.00 | 83 | 1009.8 |
| 20260507070515 | 68 | 246 | 5.2 | 10.4 | 0.00 | 0.00 | 0.00 | 83 | 1009.8 |
| 20260507070030 | 68 | 279 | 3.5 | 9.6 | 0.00 | 0.00 | 0.00 | 83 | 1009.8 |
| 20260507065514 | 68 | 253 | 3.5 | 9.6 | 0.00 | 0.00 | 0.00 | 84 | 1009.7 |
| 20260507065012 | 68 | 215 | 4.3 | 9.6 | 0.00 | 0.00 | 0.00 | 83 | 1009.8 |
| 20260507064530 | 68 | 232 | 1.7 | 8.7 | 0.00 | 0.00 | 0.00 | 83 | 1009.5 |
| 20260507064012 | 68 | 180 | 3.5 | 9.6 | 0.00 | 0.00 | 0.00 | 83 | 1009.3 |
| 20260507063511 | 68 | 205 | 2.6 | 9.6 | 0.00 | 0.00 | 0.00 | 83 | 1009.6 |
| 20260507063030 | 68 | 277 | 1.7 | 6.1 | 0.00 | 0.00 | 0.00 | 81 | 1009.4 |
| 20260507062511 | 68 | 154 | 2.6 | 6.1 | 0.00 | 0.00 | 0.00 | 81 | 1009.0 |
| 20260507062017 | 69 | 229 | 1.7 | 6.1 | 0.00 | 0.00 | 0.00 | 81 | 1009.6 |
| 20260507061529 | 68 | 0 | 1.7 | 6.1 | 0.00 | 0.00 | 0.00 | 81 | 1009.9 |
| 20260507061009 | 68 | 219 | 2.6 | 8.7 | 0.00 | 0.00 | 0.00 | 81 | 1010.2 |
| 20260507060512 | 68 | 225 | 2.6 | 9.6 | 0.00 | 0.00 | 0.00 | 81 | 1010.7 |
| 20260507060030 | 68 | 273 | 4.3 | 9.6 | 0.00 | 0.00 | 0.00 | 80 | 1010.9 |
| 20260507055510 | 69 | 280 | 3.5 | 10.4 | 0.00 | 0.00 | 0.00 | 80 | 1010.8 |
| 20260507055013 | 69 | 233 | 4.3 | 10.4 | 0.00 | 0.00 | 0.00 | 79 | 1010.8 |
| 20260507054528 | 69 | 250 | 6.1 | 9.6 | 0.00 | 0.00 | 0.00 | 78 | 1010.9 |
| 20260507054012 | 70 | 181 | 5.2 | 11.3 | 0.00 | 0.00 | 0.00 | 77 | 1010.9 |
| 20260507053512 | 70 | 263 | 6.1 | 11.3 | 0.00 | 0.00 | 0.00 | 76 | 1011.0 |
| 20260507053030 | 70 | 273 | 5.2 | 11.3 | 0.00 | 0.00 | 0.00 | 76 | 1011.0 |
| 20260507052511 | 70 | 234 | 5.2 | 10.4 | 0.00 | 0.00 | 0.00 | 76 | 1011.0 |
| 20260507052012 | 70 | 306 | 6.1 | 9.6 | 0.00 | 0.00 | 0.00 | 75 | 1011.1 |
| 20260507051528 | 70 | 255 | 3.5 | 9.6 | 0.00 | 0.00 | 0.00 | 75 | 1011.1 |
| 20260507051011 | 70 | 269 | 4.3 | 9.6 | 0.00 | 0.00 | 0.00 | 75 | 1011.1 |
| 20260507050512 | 70 | 240 | 4.3 | 9.6 | 0.00 | 0.00 | 0.00 | 74 | 1011.0 |
| 20260507050036 | 71 | 232 | 4.3 | 9.6 | 0.00 | 0.00 | 0.00 | 74 | 1011.0 |
| 20260507045514 | 71 | 253 | 3.5 | 7.8 | 0.00 | 0.00 | 0.00 | 73 | 1010.8 |
| 20260507045010 | 71 | 240 | 3.5 | 7.8 | 0.00 | 0.00 | 0.00 | 73 | 1010.8 |
| 20260507044531 | 71 | 148 | 3.5 | 7.0 | 0.00 | 0.00 | 0.00 | 73 | 1010.6 |
| 20260507044012 | 71 | 213 | 3.5 | 7.0 | 0.00 | 0.00 | 0.00 | 73 | 1010.7 |
| 20260507043510 | 71 | 162 | 1.7 | 7.0 | 0.00 | 0.00 | 0.00 | 73 | 1010.7 |
| 20260507043028 | 71 | 163 | 0.9 | 9.6 | 0.00 | 0.00 | 0.00 | 73 | 1010.9 |
| 20260507042510 | 71 | 243 | 1.7 | 9.6 | 0.00 | 0.00 | 0.00 | 73 | 1011.0 |
| 20260507042010 | 71 | 235 | 3.5 | 9.6 | 0.00 | 0.00 | 0.00 | 72 | 1010.9 |
| 20260507041545 | 71 | 258 | 1.7 | 7.8 | 0.00 | 0.00 | 0.00 | 72 | 1011.1 |
| 20260507041012 | 71 | 217 | 2.6 | 6.1 | 0.00 | 0.00 | 0.00 | 72 | 1010.9 |
| 20260507040513 | 72 | 188 | 2.6 | 6.1 | 0.00 | 0.00 | 0.00 | 72 | 1010.8 |
| 20260507040028 | 71 | 237 | 2.6 | 6.1 | 0.00 | 0.00 | 0.00 | 72 | 1010.8 |
| 20260507035512 | 71 | 269 | 1.7 | 6.1 | 0.00 | 0.00 | 0.00 | 72 | 1010.8 |
| 20260507035015 | 71 | 243 | 1.7 | 6.1 | 0.00 | 0.00 | 0.00 | 71 | 1010.7 |
| 20260507034530 | 72 | 215 | 2.6 | 6.1 | 0.00 | 0.00 | 0.00 | 71 | 1010.5 |
| 20260507034012 | 72 | 240 | 2.6 | 5.2 | 0.00 | 0.00 | 0.00 | 70 | 1010.2 |
| 20260507033511 | 72 | 208 | 1.7 | 6.1 | 0.00 | 0.00 | 0.00 | 70 | 1010.3 |
| 20260507033032 | 72 | 267 | 2.6 | 6.1 | 0.00 | 0.00 | 0.00 | 70 | 1010.5 |
| 20260507032516 | 72 | 284 | 1.7 | 4.3 | 0.00 | 0.00 | 0.00 | 70 | 1010.2 |
| 20260507032013 | 72 | 153 | 1.7 | 7.0 | 0.00 | 0.00 | 0.00 | 70 | 1010.3 |
| 20260507031529 | 72 | 244 | 2.6 | 7.0 | 0.00 | 0.00 | 0.00 | 69 | 1010.3 |
| 20260507031012 | 72 | 228 | 2.6 | 7.0 | 0.00 | 0.00 | 0.00 | 69 | 1010.4 |
| 20260507030513 | 72 | 271 | 2.6 | 5.2 | 0.00 | 0.00 | 0.00 | 69 | 1010.5 |
| 20260507030030 | 73 | 261 | 2.6 | 5.2 | 0.00 | 0.00 | 0.00 | 68 | 1010.8 |
| 20260507025517 | 73 | 225 | 0.9 | 5.2 | 0.00 | 0.00 | 0.00 | 68 | 1010.7 |
| 20260507025012 | 73 | 202 | 1.7 | 5.2 | 0.00 | 0.00 | 0.00 | 68 | 1010.8 |
| 20260507024530 | 73 | 178 | 1.7 | 5.2 | 0.00 | 0.00 | 0.00 | 68 | 1010.9 |
| 20260507024016 | 73 | 0 | 1.7 | 7.0 | 0.00 | 0.00 | 0.00 | 69 | 1011.1 |
| 20260507023510 | 73 | 131 | 2.6 | 7.8 | 0.00 | 0.00 | 0.00 | 68 | 1011.2 |
| 20260507023027 | 73 | 180 | 3.5 | 7.8 | 0.00 | 0.00 | 0.00 | 68 | 1011.3 |
| 20260507022513 | 73 | 173 | 1.7 | 5.2 | 0.00 | 0.00 | 0.00 | 68 | 1011.2 |
| 20260507022011 | 73 | 233 | 0.9 | 4.3 | 0.00 | 0.00 | 0.00 | 68 | 1011.1 |
| 20260507021528 | 73 | 213 | 1.7 | 4.3 | 0.00 | 0.00 | 0.00 | 68 | 1011.1 |
| 20260507021012 | 73 | 213 | 1.7 | 4.3 | 0.00 | 0.00 | 0.00 | 68 | 1011.1 |
| 20260507020513 | 73 | 193 | 1.7 | 4.3 | 0.00 | 0.00 | 0.00 | 68 | 1011.1 |
| 20260507020029 | 73 | 188 | 1.7 | 5.2 | 0.00 | 0.00 | 0.00 | 68 | 1011.0 |
| 20260507015511 | 73 | 159 | 1.7 | 5.2 | 0.00 | 0.00 | 0.00 | 68 | 1011.2 |
| 20260507015011 | 73 | 205 | 2.6 | 6.1 | 0.00 | 0.00 | 0.00 | 68 | 1011.3 |
| 20260507014547 | 73 | 184 | 2.6 | 7.0 | 0.00 | 0.00 | 0.00 | 67 | 1011.3 |
| 20260507014012 | 73 | 240 | 2.6 | 7.0 | 0.00 | 0.00 | 0.00 | 67 | 1011.3 |
| 20260507013511 | 73 | 280 | 2.6 | 5.2 | 0.00 | 0.00 | 0.00 | 67 | 1011.0 |
| 20260507013041 | 73 | 0 | 1.7 | 4.3 | 0.00 | 0.00 | 0.00 | 66 | 1010.8 |
| 20260507012515 | 74 | 284 | 0.0 | 4.3 | 0.00 | 0.00 | 0.00 | 65 | 1010.8 |
| 20260507012016 | 74 | 254 | 0.9 | 4.3 | 0.00 | 0.00 | 0.00 | 66 | 1011.0 |
| 20260507011537 | 74 | 227 | 1.7 | 4.3 | 0.00 | 0.00 | 0.00 | 66 | 1011.0 |
| 20260507011011 | 74 | 211 | 0.9 | 3.5 | 0.00 | 0.00 | 0.00 | 65 | 1010.9 |
| 20260507010512 | 74 | 135 | 0.9 | 3.5 | 0.00 | 0.00 | 0.00 | 65 | 1011.1 |
| 20260507010032 | 74 | 204 | 1.7 | 6.1 | 0.00 | 0.00 | 0.00 | 65 | 1011.2 |
| 20260507005514 | 74 | 277 | 2.6 | 6.1 | 0.00 | 0.00 | 0.00 | 65 | 1011.1 |
| 20260507005011 | 74 | 234 | 1.7 | 7.0 | 0.00 | 0.00 | 0.00 | 64 | 1011.2 |
| 20260507004529 | 74 | 223 | 2.6 | 7.8 | 0.00 | 0.00 | 0.00 | 64 | 1011.1 |
| 20260507004013 | 75 | 261 | 2.6 | 7.8 | 0.00 | 0.00 | 0.00 | 64 | 1011.1 |
| 20260507003510 | 75 | 254 | 2.6 | 6.1 | 0.00 | 0.00 | 0.00 | 63 | 1010.9 |
| 20260507003027 | 75 | 236 | 2.6 | 6.1 | 0.00 | 0.00 | 0.00 | 63 | 1010.9 |
| 20260507002510 | 75 | 234 | 2.6 | 6.1 | 0.00 | 0.00 | 0.00 | 63 | 1010.8 |
| 20260507002010 | 75 | 227 | 2.6 | 7.0 | 0.00 | 0.00 | 0.00 | 62 | 1010.8 |
| 20260507001530 | 75 | 241 | 3.5 | 7.0 | 0.00 | 0.00 | 0.00 | 62 | 1010.7 |
| 20260507001010 | 75 | 211 | 2.6 | 6.1 | 0.00 | 0.00 | 0.00 | 62 | 1010.7 |
| 20260507000516 | 76 | 208 | 2.6 | 7.8 | 0.00 | 0.00 | 0.00 | 61 | 1010.5 |
| 20260507000032 | 76 | 221 | 2.6 | 7.8 | 0.00 | 0.00 | 0.00 | 61 | 1010.3 |
| 20260506235511 | 76 | 226 | 1.7 | 8.7 | 0.00 | 0.00 | 0.00 | 60 | 1010.4 |
| 20260506235009 | 76 | 265 | 3.5 | 12.2 | 0.00 | 0.00 | 0.00 | 60 | 1010.5 |
| 20260506234530 | 76 | 273 | 3.5 | 12.2 | 0.00 | 0.00 | 0.00 | 60 | 1010.6 |
| 20260506234011 | 76 | 258 | 6.1 | 12.2 | 0.00 | 0.00 | 0.00 | 60 | 1010.5 |
| 20260506233512 | 76 | 227 | 2.6 | 12.2 | 0.00 | 0.00 | 0.00 | 60 | 1010.5 |
| 20260506233028 | 77 | 276 | 3.5 | 12.2 | 0.00 | 0.00 | 0.00 | 59 | 1010.4 |
| 20260506232510 | 77 | 218 | 4.3 | 10.4 | 0.00 | 0.00 | 0.00 | 60 | 1010.4 |
| 20260506232011 | 77 | 271 | 2.6 | 9.6 | 0.00 | 0.00 | 0.00 | 60 | 1010.3 |
| 20260506231529 | 77 | 252 | 2.6 | 9.6 | 0.00 | 0.00 | 0.00 | 60 | 1010.3 |
| 20260506231012 | 77 | 293 | 4.3 | 9.6 | 0.00 | 0.00 | 0.00 | 59 | 1010.4 |
| 20260506230510 | 77 | 281 | 4.3 | 9.6 | 0.00 | 0.00 | 0.00 | 59 | 1010.2 |
| 20260506230031 | 77 | 275 | 5.2 | 9.6 | 0.00 | 0.00 | 0.00 | 59 | 1010.2 |
| 20260506225514 | 77 | 225 | 3.5 | 10.4 | 0.00 | 0.00 | 0.00 | 59 | 1010.2 |
| 20260506225009 | 77 | 224 | 3.5 | 10.4 | 0.00 | 0.00 | 0.00 | 59 | 1010.1 |
| 20260506224528 | 77 | 256 | 3.5 | 8.7 | 0.00 | 0.00 | 0.00 | 59 | 1010.3 |
| 20260506224010 | 77 | 226 | 2.6 | 11.3 | 0.00 | 0.00 | 0.00 | 59 | 1010.2 |
| 20260506223510 | 78 | 206 | 5.2 | 11.3 | 0.00 | 0.00 | 0.00 | 59 | 1010.3 |
| 20260506223028 | 78 | 234 | 5.2 | 11.3 | 0.00 | 0.00 | 0.00 | 59 | 1010.3 |
| 20260506222513 | 78 | 236 | 6.1 | 13.0 | 0.00 | 0.00 | 0.00 | 59 | 1010.3 |
| 20260506222011 | 78 | 267 | 6.1 | 13.0 | 0.00 | 0.00 | 0.00 | 59 | 1010.2 |
| 20260506221529 | 78 | 213 | 5.2 | 12.2 | 0.00 | 0.00 | 0.00 | 60 | 1010.3 |
| 20260506221014 | 78 | 261 | 6.1 | 14.8 | 0.00 | 0.00 | 0.00 | 59 | 1010.2 |
| 20260506220510 | 78 | 290 | 4.3 | 14.8 | 0.00 | 0.00 | 0.00 | 59 | 1010.4 |
| 20260506220029 | 78 | 273 | 4.3 | 11.3 | 0.00 | 0.00 | 0.00 | 59 | 1010.3 |
| 20260506215512 | 78 | 241 | 6.1 | 13.0 | 0.00 | 0.00 | 0.00 | 59 | 1010.2 |
| 20260506215015 | 78 | 231 | 5.2 | 13.0 | 0.00 | 0.00 | 0.00 | 59 | 1010.0 |
| 20260506214527 | 78 | 281 | 6.1 | 13.9 | 0.00 | 0.00 | 0.00 | 59 | 1010.1 |
| 20260506214011 | 78 | 246 | 6.1 | 16.5 | 0.00 | 0.00 | 0.00 | 59 | 1010.2 |
| 20260506213512 | 78 | 292 | 6.1 | 16.5 | 0.00 | 0.00 | 0.00 | 58 | 1009.9 |
| 20260506213030 | 78 | 250 | 11.3 | 18.2 | 0.00 | 0.00 | 0.00 | 58 | 1010.0 |
| 20260506212510 | 78 | 259 | 7.0 | 18.2 | 0.00 | 0.00 | 0.00 | 58 | 1009.9 |
| 20260506212011 | 78 | 279 | 6.1 | 18.2 | 0.00 | 0.00 | 0.00 | 57 | 1009.7 |
| 20260506211528 | 78 | 184 | 6.1 | 13.9 | 0.00 | 0.00 | 0.00 | 58 | 1009.6 |
| 20260506211011 | 78 | 252 | 7.0 | 19.1 | 0.00 | 0.00 | 0.00 | 57 | 1009.7 |
| 20260506210511 | 78 | 130 | 7.8 | 20.9 | 0.00 | 0.00 | 0.00 | 57 | 1009.9 |
| 20260506210036 | 78 | 249 | 9.6 | 20.9 | 0.00 | 0.00 | 0.00 | 57 | 1009.9 |
| 20260506205511 | 78 | 216 | 9.6 | 17.4 | 0.00 | 0.00 | 0.00 | 57 | 1010.0 |
| 20260506205011 | 78 | 216 | 7.0 | 14.8 | 0.00 | 0.00 | 0.00 | 58 | 1010.1 |
| 20260506204528 | 78 | 169 | 6.1 | 13.9 | 0.00 | 0.00 | 0.00 | 58 | 1010.1 |
| 20260506204009 | 78 | 267 | 7.8 | 19.1 | 0.00 | 0.00 | 0.00 | 58 | 1010.2 |
| 20260506203510 | 78 | 239 | 5.2 | 19.1 | 0.00 | 0.00 | 0.00 | 58 | 1010.3 |
| 20260506203037 | 78 | 246 | 7.0 | 19.1 | 0.00 | 0.00 | 0.00 | 58 | 1010.6 |
| 20260506202511 | 78 | 286 | 10.4 | 21.7 | 0.00 | 0.00 | 0.00 | 58 | 1010.6 |
| 20260506202013 | 78 | 169 | 6.1 | 21.7 | 0.00 | 0.00 | 0.00 | 57 | 1010.7 |
| 20260506201531 | 78 | 272 | 11.3 | 22.6 | 0.00 | 0.00 | 0.00 | 56 | 1010.7 |
| 20260506201010 | 78 | 209 | 12.2 | 22.6 | 0.00 | 0.00 | 0.00 | 57 | 1011.1 |
| 20260506200512 | 78 | 243 | 11.3 | 22.6 | 0.00 | 0.00 | 0.00 | 60 | 1011.1 |
| 20260506200032 | 78 | 215 | 7.8 | 20.9 | 0.00 | 0.00 | 0.00 | 60 | 1011.2 |
| 20260506195511 | 78 | 236 | 10.4 | 17.4 | 0.00 | 0.00 | 0.00 | 61 | 1011.4 |
| 20260506195012 | 78 | 229 | 7.0 | 16.5 | 0.00 | 0.00 | 0.00 | 62 | 1011.4 |
| 20260506194530 | 78 | 229 | 4.3 | 19.1 | 0.00 | 0.00 | 0.00 | 62 | 1011.5 |
| 20260506194013 | 78 | 229 | 8.7 | 21.7 | 0.00 | 0.00 | 0.00 | 62 | 1011.6 |
| 20260506193510 | 77 | 215 | 8.7 | 21.7 | 0.00 | 0.00 | 0.00 | 63 | 1011.7 |
| 20260506193029 | 78 | 213 | 7.0 | 13.9 | 0.00 | 0.00 | 0.00 | 62 | 1011.8 |
| 20260506192513 | 77 | 223 | 7.0 | 16.5 | 0.00 | 0.00 | 0.00 | 62 | 1011.8 |
| 20260506192011 | 77 | 254 | 7.8 | 17.4 | 0.00 | 0.00 | 0.00 | 62 | 1011.8 |
| 20260506191529 | 77 | 182 | 9.6 | 17.4 | 0.00 | 0.00 | 0.00 | 62 | 1011.7 |
| 20260506191011 | 77 | 170 | 6.1 | 13.0 | 0.00 | 0.00 | 0.00 | 63 | 1011.7 |
| 20260506190512 | 77 | 192 | 7.0 | 13.0 | 0.00 | 0.00 | 0.00 | 63 | 1011.7 |
| 20260506190031 | 76 | 244 | 6.1 | 15.6 | 0.00 | 0.00 | 0.00 | 63 | 1011.7 |
| 20260506185510 | 76 | 228 | 7.8 | 18.2 | 0.00 | 0.00 | 0.00 | 63 | 1011.7 |
| 20260506185011 | 76 | 202 | 8.7 | 18.2 | 0.00 | 0.00 | 0.00 | 63 | 1011.9 |
| 20260506184530 | 76 | 230 | 6.1 | 15.6 | 0.00 | 0.00 | 0.00 | 63 | 1012.1 |
| 20260506184010 | 76 | 237 | 7.8 | 15.6 | 0.00 | 0.00 | 0.00 | 62 | 1012.1 |
| 20260506183512 | 76 | 231 | 7.0 | 13.9 | 0.00 | 0.00 | 0.00 | 62 | 1012.1 |
| 20260506183030 | 76 | 200 | 7.0 | 18.2 | 0.00 | 0.00 | 0.00 | 63 | 1012.1 |
| 20260506182510 | 76 | 311 | 10.4 | 18.2 | 0.00 | 0.00 | 0.00 | 62 | 1012.2 |
| 20260506182011 | 76 | 160 | 8.7 | 22.6 | 0.00 | 0.00 | 0.00 | 63 | 1012.3 |
| 20260506181534 | 76 | 189 | 9.6 | 22.6 | 0.00 | 0.00 | 0.00 | 63 | 1012.3 |
| 20260506181013 | 76 | 188 | 10.4 | 20.9 | 0.00 | 0.00 | 0.00 | 63 | 1012.3 |
| 20260506180519 | 75 | 183 | 8.7 | 21.7 | 0.00 | 0.00 | 0.00 | 63 | 1012.6 |
| 20260506180038 | 75 | 141 | 11.3 | 21.7 | 0.00 | 0.00 | 0.00 | 62 | 1012.4 |
| 20260506175515 | 75 | 304 | 7.8 | 21.7 | 0.00 | 0.00 | 0.00 | 63 | 1012.7 |
| 20260506175011 | 75 | 201 | 7.8 | 21.7 | 0.00 | 0.00 | 0.00 | 64 | 1012.7 |
| 20260506174529 | 75 | 200 | 12.2 | 21.7 | 0.00 | 0.00 | 0.00 | 63 | 1013.0 |
| 20260506174012 | 75 | 203 | 8.7 | 20.0 | 0.00 | 0.00 | 0.00 | 63 | 1013.1 |
| 20260506173511 | 75 | 201 | 10.4 | 20.0 | 0.00 | 0.00 | 0.00 | 62 | 1013.2 |
| 20260506173029 | 75 | 172 | 10.4 | 17.4 | 0.00 | 0.00 | 0.00 | 62 | 1013.2 |
| 20260506172511 | 74 | 178 | 9.6 | 17.4 | 0.00 | 0.00 | 0.00 | 63 | 1013.3 |
| 20260506172012 | 75 | 171 | 8.7 | 16.5 | 0.00 | 0.00 | 0.00 | 63 | 1013.4 |
| 20260506171544 | 74 | 136 | 7.0 | 17.4 | 0.00 | 0.00 | 0.00 | 65 | 1013.6 |
| 20260506171009 | 74 | 257 | 8.7 | 17.4 | 0.00 | 0.00 | 0.00 | 66 | 1013.6 |
| 20260506170509 | 74 | 169 | 7.8 | 17.4 | 0.00 | 0.00 | 0.00 | 67 | 1013.5 |